Location: �mondeville
(49.4591°N, 1.3431°W)
Time: 00:21:10
(UTC+00:00)

Cosmos 2333 Rocket - Pass Details

Date: 22 October 2019
Orbit: 838 x 864 km, 70.8° (Epoch: 20 November)

Event Time Altitude Azimuth Distance (km) Brightness Sun altitude
Exits shadow 05:33:37 12° 296° (WNW) 2,338 3.9 -10.9°
Maximum altitude 05:36:24 16° 328° (NNW) 2,071 3.9 -10.5°
Drops below altitude 10° 05:39:55 10° 6° (N) 2,496 4.7 -9.9°
Sets 05:43:25 0° 27° (NNE) 3,441 5.7 -9.4°
